IRIDIUM 46 [-]

Last updated on May 12, 2019, 3:05 a.m. UTC

1 24905U 97043C   19131.79387008  .70300962 -16113-5  50203-3 0  9998
2 24905  86.3340 285.7280 0006996 272.9672  87.2952 16.53345512142581

Satellite is not in orbit.